Miscellaneous Local Product
Issued by NWS Hastings, NE

Home | Current Version | Previous Version | Graphics & Text | Print | Product List | Glossary On
Versions: 1 2 3 4 5 6 7 8 9 10 11 12 13 14 15 16 17 18 19 20 21 22 23 24 25 26 27 28 29 30 31 32 33 34 35 36 37 38 39 40 41 42 43 44 45 46 47 48 49 50
000
AXUS43 KGID 241702
MISGRI

GID CWA HOURLY WEATHER ROUNDUP
NATIONAL WEATHER SERVICE HASTINGS NE
1200 PM CDT WED MAY 24 2017

NOTE: "FAIR" INDICATES FEW OR NO CLOUDS BELOW 12,000 FEET WITH NO
SIGNIFICANT WEATHER AND/OR OBSTRUCTIONS TO VISIBILITY.

...SOUTH CENTRAL NEBRASKA...

CITY           SKY/WX    TMP DP  RH WIND       PRES   REMARKS
GRAND ISLAND   FAIR      59  43  55 N5        29.79F
HASTINGS       FAIR      59  42  53 N8        29.80F
KEARNEY        FAIR      55  37  50 N5        29.80F
ORD            NOT AVBL
YORK           FAIR      57  43  58 N7        29.78F
AURORA         FAIR      59  42  54 N6        29.78F
LEXINGTON      FAIR      56  42  57 W3        29.79F
HOLDREGE       PTSUNNY   54  39  57 NW5       29.80F
HEBRON         FAIR      61  45  56 N7        29.78S

...NEBRASKA PANHANDLE...

CITY           SKY/WX    TMP DP  RH WIND       PRES   REMARKS
CHADRON        FAIR      66  43  43 S16G24    29.62F
ALLIANCE       FAIR      63  40  42 S17       29.69F
SCOTTSBLUFF    FAIR      68  42  38 SE9       29.67F
SIDNEY         FAIR      62  42  47 S15       29.75F

...WESTERN AND NORTH CENTRAL NEBRASKA...

CITY           SKY/WX    TMP DP  RH WIND       PRES   REMARKS
VALENTINE      FAIR      59  35  40 S6        29.73F
AINSWORTH      FAIR      56  42  59 S6        29.75F
ONEILL         FAIR      56  42  59 CALM      29.78F
BROKEN BOW     FAIR      56  41  57 VRB7      29.78F
IMPERIAL       FAIR      61  39  44 VRB7      29.77F
NORTH PLATTE   FAIR      59  36  42 W3        29.77F
MCCOOK         FAIR      59  38  45 VRB3      29.80F

...EASTERN NEBRASKA...

CITY           SKY/WX    TMP DP  RH WIND       PRES   REMARKS
NORFOLK        PTSUNNY   57  43  59 CALM      29.75F
SO SIOUX CITY  FAIR      59  49  69 NE8       29.76F
TEKAMAH        FAIR      60  47  61 N13       29.75F
ALBION         PTSUNNY   60  43  53 N5        29.77F
OMAHA EPPLEY   FAIR      63  48  58 N13       29.74F
OFFUTT AFB     FAIR      60  47  61 N14G20    29.74F
MILLARD        PTSUNNY   61  48  62 NW7       29.75F
LINCOLN        FAIR      63  47  55 N13G18    29.77S
NEBRASKA CITY  PTSUNNY   62  43  50 N15G21    29.74F
BEATRICE       PTSUNNY   62  46  55 NE9       29.76S
FALLS CITY     PTSUNNY   61  47  59 N15G22    29.72S

...NORTHERN KANSAS...

CITY           SKY/WX    TMP DP  RH WIND       PRES   REMARKS
GOODLAND       FAIR      60  41  49 S12       29.80F
HILL CITY      FAIR      59  40  49 CALM      29.81F
NORTON         SUNNY     57  37  47 S3        29.80F
PHILLIPSBURG   SUNNY     59  39  47 CALM      29.81F
SMITH CENTER   PTSUNNY   57  39  51 N6        29.81F
RUSSELL        PTSUNNY   58  42  55 N6        29.80F
CONCORDIA      PTSUNNY   60  47  61 NW12      29.78F
SALINA         FAIR      64  46  52 NW12      29.80F
TOPEKA         FAIR      64  50  60 NW16G24   29.72F



USA.gov is the U.S. government's official web portal to all federal, state and local government web resources and services.